Back to catalog

IRIDIUM 112

AliveCommunicationsPO
NORAD 41925·PAYLOAD·🇺🇸 United States

Launched Jan 14, 2017 from Vandenberg Space Force Base

Loading…

Next Passes (next 24 hours)

TLE

FreshSource: CelesTrak SupGP

Epoch: Sep 14, 2026, 21:44 UTC

1 41925C 17003J   26257.90590278  .00002871  00000+0  10266-2 0  2575
2 41925  86.3945  50.7613 0002179  94.7448 163.6109 14.34216774    11

Track IRIDIUM 112 in real time with AllMySat

Download on the App Store